Regional Weather Roundup
Issued by NWS

Home | Current Version | Previous Version | Graphics & Text | Print | Product List | Glossary On
Versions: 1 2 3 4 5 6 7 8 9 10 11 12 13 14 15 16 17 18 19 20 21 22 23 24 25 26 27 28 29 30 31 32 33 34 35 36 37 38 39 40 41 42 43 44 45 46 47 48 49 50
887
ASUS44 KLIX 311110
RWRLA
LOUISIANA WEATHER ROUNDUP
NATIONAL WEATHER SERVICE NEW ORLEANS LA
600 AM CDT THU JUL 31 2014

NOTE: "FAIR" INDICATES FEW OR NO CLOUDS BELOW 12,000 FEET WITH NO
      SIGNIFICANT WEATHER AND/OR OBSTRUCTIONS TO VISIBILITY.
      SKY/WX - SKY CONDITION AND SIGNIFICANT WEATHER.
      TMP - AIR TEMPERATURE.    DP   - DEWPOINT TEMPERATURE.
      RH  - RELATIVE HUMIDITY.  PRES - PRESSURE.
      HX  - HEAT INDEX.         WCI  - WIND CHILL INDEX.

*  THESE STATIONS ARE NOT NWS OR FAA STATIONS AND ARE NOT UNDER
   NWS QUALITY CONTROL.

LAZ040-048-061>063-065-066-069-311200-
SOUTHEAST LOUISIANA

CITY           SKY/WX    TMP DP  RH WIND       PRES   REMARKS
N.O. AUDUBON     N/A     75  65  69 MISG        N/A
N.O. INTL ARPT PTCLDY    71  65  81 CALM      30.00R
N.O. LAKEFRONT CLEAR     78  68  71 E8        30.00S
N.O. DOWNTOWN* FAIR      79  61  53 CALM      30.01R
SLIDELL        CLEAR     65  62  90 CALM      30.01R
BATON ROUGE    MOCLDY    69  64  84 E6        30.00S
BOOTHVILLE     CLEAR     76  64  66 CALM      30.01R
BELLE CHASSE   PTCLDY    68  64  87 CALM      30.00R
BOGALUSA*      FAIR      68  64  85 CALM      30.03R
GALLIANO*      NOT AVBL
NEW ROADS*     FAIR      70  64  81 CALM      30.02R
GONZALES*      FAIR      66  66 100 CALM      30.00R
HAMMOND*       PTCLDY    70  63  78 CALM      30.03R
HOUMA*         CLOUDY    73  67  82 CALM      29.99S
PORT FOURCHON* PTSUNNY   81  64  57 SE3       30.01R

$$

LAZ041-044-053-054-311200-
SOUTHWEST LOUISIANA

CITY           SKY/WX    TMP DP  RH WIND       PRES   REMARKS
LAKE CHARLES   MOCLDY    73  67  81 E3        29.99R
LAFAYETTE      PTCLDY    71  67  87 CALM      30.00R
PATTERSON      PTCLDY    70  68  94 CALM      30.03R
SALT POINT       N/A     75  70  84 CALM      29.98R
NEW IBERIA     PTCLDY    73  66  78 NE5       30.01R
CHENAULT AIRPK CLEAR     73  66  78 CALM      30.00R

$$

LAZ027-028-311200-
CENTRAL LOUISIANA

CITY           SKY/WX    TMP DP  RH WIND       PRES   REMARKS
FORT POLK      MOCLDY    72  63  73 E3        30.02R
ALEXANDRIA INT MOCLDY    72  66  81 NE3       30.02R
ALEXANDRIA     NOT AVBL

$$

LAZ001-002-311200-
NORTHWEST LOUISIANA

CITY           SKY/WX    TMP DP  RH WIND       PRES   REMARKS
SHREVEPORT     LGT RAIN  70  66  87 SE7       30.01S
BARKSDALE AFB  PTCLDY    70  65  84 SE5       30.02S
DTN SHREVEPORT LGT RAIN  70  65  84 SE6       30.02S

$$

LAZ014-016-311200-
NORTHEAST LOUISIANA

CITY           SKY/WX    TMP DP  RH WIND       PRES   REMARKS
MONROE         CLOUDY    71  67  87 NE6       30.06S
TALLULAH       CLOUDY    71  65  81 N5        30.06R

$$




USA.gov is the U.S. government's official web portal to all federal, state and local government web resources and services.